Location: Newark
(7.0858°N, 171.3717°E)
Time: 05:42:31
(UTC+00:00)

Vanguard 1 - All Passes

Search period start: 27 November 2020 00:00
Search period end: 07 December 2020 00:00
Orbit: 650 x 3833 km, 34.2° (Epoch: 26 November)

Date Brightness Start Highest point End Pass type
(mag) Time Alt. Az. Time Alt. Az. Time Alt. Az.
27 Nov - 01:40:27 10° WNW 02:01:11 73° SW 02:23:57 10° SE daylight
27 Nov - 04:10:23 10° W 04:29:01 30° SW 04:45:03 10° SSE daylight
27 Nov - 14:11:43 10° SW 14:16:14 68° SE 14:20:56 10° ENE night (unlit)
27 Nov - 16:34:05 10° WNW 16:37:13 16° NNW 16:41:04 10° NNE visible
27 Nov - 18:59:30 10° N 19:01:59 11° N 19:04:50 10° NNE daylight
27 Nov - 21:18:33 10° NNW 21:28:47 27° NNE 21:44:09 10° E daylight
27 Nov - 23:38:39 10° NW 23:55:22 66° NE 00:18:55 10° ESE daylight
28 Nov - 02:02:08 10° WNW 02:22:48 60° SW 02:44:50 10° SE daylight
28 Nov - 04:35:06 10° W 04:51:07 23° SW 05:04:53 10° S daylight
28 Nov - 12:14:31 10° S 12:16:40 12° SSE 12:18:35 10° SE night (unlit)
28 Nov - 14:32:39 10° WSW 14:37:04 60° NW 14:41:51 10° NE night (unlit)
28 Nov - 16:57:15 10° NNW 16:58:51 11° NNW 17:00:38 10° N visible
28 Nov - 19:20:45 10° N 19:24:14 12° NNE 19:28:24 10° NE daylight
28 Nov - 21:39:11 10° NNW 21:50:38 34° NNE 22:08:19 10° E daylight
28 Nov - 23:59:33 10° NW 00:16:53 80° NE 00:40:53 10° ESE daylight
29 Nov - 02:24:14 10° WNW 02:44:31 49° SW 03:05:29 10° SSE daylight
29 Nov - 05:01:21 10° WSW 05:13:36 16° SSW 05:24:15 10° S daylight
29 Nov - 12:33:39 10° SSW 12:37:51 22° SSE 12:41:23 10° E night (unlit)
29 Nov - 14:54:03 10° W 14:58:00 31° NNW 15:02:25 10° NNE night (unlit)
29 Nov - 19:41:24 10° N 19:46:25 14° NNE 19:52:54 10° NE daylight
29 Nov - 21:59:46 10° NW 22:12:15 42° NE 22:31:58 10° E daylight
30 Nov - 00:20:37 10° NW 00:38:24 86° SW 01:02:29 10° SE daylight
30 Nov - 02:46:54 10° W 03:06:22 39° SW 03:25:56 10° SSE daylight
30 Nov - 05:30:08 10° SW 05:36:32 12° SSW 05:42:22 10° S daylight
30 Nov - 12:53:49 10° SW 12:58:53 40° SE 13:03:02 10° ENE night (unlit)
30 Nov - 15:15:59 10° WNW 15:19:07 18° NNW 15:22:37 10° NNE night (unlit)
30 Nov - 20:01:50 10° NNW 20:08:26 18° NNE 20:17:39 10° ENE daylight
30 Nov - 22:20:24 10° NW 22:33:42 53° NE 22:55:04 10° ESE daylight
01 Dec - 00:41:54 10° WNW 00:59:59 72° SW 01:23:44 10° SE daylight
01 Dec - 03:10:18 10° W 03:28:28 30° SW 03:46:12 10° SSE daylight
01 Dec - 10:56:40 10° S 10:58:20 11° SSE 10:59:52 10° SE visible
01 Dec - 13:14:31 10° SW 13:19:46 80° SE 13:24:10 10° ENE night (unlit)
01 Dec - 15:39:03 10° NW 15:40:27 11° NNW 15:41:56 10° N visible
01 Dec - 20:22:13 10° NNW 20:30:14 23° NNE 20:42:17 10° ENE daylight
01 Dec - 22:41:05 10° NW 22:55:02 65° NE 23:17:37 10° ESE daylight
02 Dec - 01:03:28 10° WNW 01:21:41 58° SW 01:44:43 10° SE daylight
02 Dec - 03:34:42 10° WSW 03:50:54 23° SSW 04:06:17 10° SSE daylight
02 Dec - 11:15:09 10° SSW 11:19:52 18° SSE 11:23:29 10° ESE visible
02 Dec - 13:35:41 10° WSW 13:40:36 52° NW 13:44:54 10° NE night (unlit)
02 Dec - 20:42:34 10° NNW 20:51:48 30° NE 21:06:29 10° E daylight
02 Dec - 23:01:54 10° NW 23:16:23 80° NE 23:39:42 10° ESE daylight
03 Dec - 01:25:26 10° WNW 01:43:31 47° SW 02:05:30 10° SSE daylight
03 Dec - 04:00:28 10° WSW 04:13:43 18° SSW 04:26:06 10° S daylight
03 Dec - 11:35:07 10° SSW 11:41:12 30° SSE 11:45:28 10° E visible
03 Dec - 13:57:19 10° W 14:01:27 28° NW 14:05:17 10° NNE night (unlit)
03 Dec - 21:02:59 10° NNW 21:13:08 39° NE 21:30:10 10° E daylight
03 Dec - 23:22:51 10° WNW 23:37:48 84° SW 00:01:22 10° SE daylight
04 Dec - 01:47:56 10° W 02:05:35 37° SW 02:26:04 10° SSE daylight
04 Dec - 04:28:01 10° SW 04:37:02 13° SSW 04:45:25 10° S daylight
04 Dec - 09:36:50 10° S 09:39:30 11° SSE 09:41:49 10° SE visible
04 Dec - 11:55:38 10° SW 12:02:19 51° SSE 12:06:51 10° ENE night (unlit)
04 Dec - 14:19:39 10° WNW 14:22:27 16° NNW 14:25:10 10° N night (unlit)
04 Dec - 19:06:29 10° N 19:10:41 14° NNE 19:15:59 10° NE daylight
04 Dec - 21:23:28 10° NW 21:34:20 50° NE 21:53:18 10° ESE daylight
04 Dec - 23:44:03 10° WNW 23:59:20 69° SW 00:22:43 10° SE daylight
05 Dec - 02:11:08 10° W 02:27:54 29° SSW 02:46:30 10° SSE daylight
05 Dec - 09:55:26 10° SSW 10:01:21 17° SSE 10:05:41 10° ESE visible
05 Dec - 12:16:36 10° SW 12:23:15 89° NW 12:27:48 10° NE night (unlit)
05 Dec - 19:26:16 10° N 19:32:15 19° NNE 19:40:47 10° ENE daylight
05 Dec - 21:44:03 10° NW 21:55:29 65° NE 22:15:53 10° ESE daylight
06 Dec - 00:05:32 10° WNW 00:21:03 56° SW 00:43:48 10° SE daylight
06 Dec - 02:35:17 10° WSW 02:50:36 23° SSW 03:06:48 10° SSE daylight
06 Dec - 10:15:20 10° SSW 10:22:59 26° SSE 10:28:00 10° E visible
06 Dec - 12:38:00 10° WSW 12:44:03 49° NW 12:48:26 10° NE night (unlit)
06 Dec - 19:46:20 10° NNW 19:53:35 26° NE 20:04:58 10° E daylight
06 Dec - 22:04:46 10° NW 22:16:39 81° NE 22:38:00 10° SE daylight
